Precipitable_Water
0.31 0.23 0.20 0.17 0.16 0.16 0.18 0.20 0.20 0.19 0.18 0.17 0.16 0.15 0.14 0.14 0.14 0.14 0.14 0.15 0.15 0.14 0.13 0.15 0.21 0.26 0.36 0.46 0.56 0.65 0.72 0.73 0.73 0.70 0.68 0.66 0.65 0.73 0.81 0.86 0.92 0.97 1.01 1.10 1.16 1.23 1.28 1.34 1.40 1.42 1.42 1.41 1.44 1.46 1.47 1.47 1.47 1.48 1.49 1.43 1.36 1.44 1.49 1.48 1.48 1.48 1.48 1.44 1.46 1.51 1.48 1.42 1.45 1.46 1.46 1.45 1.45 1.45 1.46 1.44 1.42 1.39 1.33 1.29 1.25 1.21
0.31 0.23 0.20 0.19 0.20 0.19 0.19 0.21 0.21 0.20 0.19 0.17 0.16 0.15 0.14 0.14 0.13 0.14 0.14 0.16 0.17 0.13 0.14 0.22 0.23 0.28 0.36 0.47 0.54 0.66 0.66 0.62 0.63 0.63 0.61 0.61 0.68 0.76 0.82 0.86 0.92 1.00 1.08 1.10 1.12 1.20 1.26 1.32 1.37 1.39 1.38 1.38 1.34 1.40 1.42 1.38 1.39 1.43 1.41 1.35 1.38 1.46 1.49 1.51 1.51 1.51 1.50 1.51 1.49 1.47 1.46 1.44 1.44 1.42 1.40 1.38 1.40 1.41 1.42 1.40 1.34 1.32 1.34 1.29 1.23 1.20
0.25 0.21 0.21 0.24 0.24 0.23 0.20 0.20 0.21 0.20 0.18 0.18 0.16 0.15 0.14 0.14 0.15 0.17 0.15 0.16 0.16 0.16 0.17 0.25 0.21 0.28 0.38 0.49 0.59 0.60 0.59 0.63 0.69 0.68 0.65 0.66 0.70 0.76 0.84 0.90 0.93 0.97 0.97 1.04 1.10 1.17 1.22 1.28 1.33 1.35 1.36 1.37 1.39 1.39 1.37 1.36 1.34 1.34 1.33 1.38 1.43 1.47 1.51 1.54 1.57 1.56 1.51 1.54 1.55 1.53 1.49 1.45 1.42 1.47 1.44 1.41 1.40 1.40 1.36 1.34 1.34 1.37 1.29 1.23 1.19 1.17
0.20 0.22 0.27 0.28 0.27 0.23 0.20 0.20 0.20 0.20 0.20 0.17 0.16 0.15 0.13 0.15 0.14 0.13 0.15 0.17 0.20 0.17 0.21 0.28 0.22 0.30 0.45 0.55 0.58 0.66 0.66 0.66 0.73 0.73 0.72 0.78 0.79 0.83 0.87 0.88 0.89 0.91 0.92 0.94 1.02 1.09 1.18 1.24 1.28 1.31 1.32 1.35 1.38 1.37 1.35 1.31 1.31 1.33 1.35 1.41 1.47 1.52 1.57 1.58 1.60 1.58 1.59 1.58 1.60 1.58 1.52 1.48 1.42 1.35 1.38 1.38 1.38 1.35 1.31 1.30 1.32 1.27 1.22 1.20 1.17 1.15
0.21 0.25 0.32 0.31 0.27 0.23 0.20 0.19 0.19 0.18 0.17 0.18 0.17 0.16 0.15 0.15 0.15 0.15 0.15 0.23 0.29 0.31 0.33 0.33 0.29 0.34 0.43 0.42 0.49 0.61 0.70 0.68 0.69 0.72 0.74 0.82 0.90 0.97 0.99 0.95 0.92 0.88 0.91 0.94 1.01 1.08 1.15 1.19 1.22 1.24 1.28 1.33 1.33 1.35 1.30 1.30 1.35 1.39 1.42 1.48 1.52 1.55 1.56 1.57 1.57 1.56 1.58 1.59 1.57 1.51 1.47 1.45 1.38 1.36 1.32 1.29 1.28 1.27 1.26 1.25 1.25 1.22 1.20 1.16 1.12 1.08
0.24 0.29 0.32 0.29 0.27 0.25 0.21 0.19 0.18 0.18 0.16 0.17 0.18 0.18 0.17 0.18 0.17 0.16 0.22 0.20 0.19 0.25 0.36 0.24 0.19 0.24 0.41 0.44 0.42 0.51 0.59 0.60 0.69 0.66 0.68 0.76 0.84 0.89 0.85 0.86 0.92 0.96 1.00 0.98 0.99 1.07 1.14 1.17 1.21 1.23 1.26 1.28 1.32 1.32 1.34 1.39 1.45 1.47 1.49 1.53 1.54 1.53 1.54 1.55 1.57 1.58 1.57 1.54 1.46 1.37 1.30 1.24 1.23 1.19 1.19 1.16 1.16 1.17 1.16 1.17 1.21 1.18 1.16 1.11 1.06 1.02
0.23 0.29 0.27 0.28 0.27 0.24 0.22 0.19 0.19 0.19 0.16 0.16 0.16 0.20 0.19 0.19 0.18 0.17 0.19 0.19 0.15 0.13 0.35 0.42 0.15 0.19 0.40 0.39 0.45 0.51 0.53 0.56 0.66 0.66 0.70 0.75 0.78 0.81 0.81 0.85 0.88 0.90 0.95 1.05 1.09 1.12 1.13 1.16 1.17 1.20 1.24 1.31 1.32 1.36 1.42 1.46 1.50 1.53 1.53 1.52 1.53 1.52 1.53 1.56 1.57 1.58 1.56 1.50 1.45 1.37 1.29 1.26 1.22 1.17 1.20 1.21 1.20 1.18 1.20 1.19 1.13 1.10 1.08 1.05 1.00 0.97
0.23 0.26 0.26 0.27 0.26 0.24 0.21 0.19 0.20 0.18 0.17 0.15 0.19 0.20 0.20 0.19 0.18 0.17 0.18 0.21 0.23 0.38 0.45 0.37 0.24 0.17 0.19 0.30 0.48 0.53 0.52 0.55 0.57 0.61 0.65 0.68 0.72 0.76 0.81 0.84 0.87 0.91 0.96 0.99 1.05 1.10 1.14 1.15 1.17 1.19 1.28 1.34 1.36 1.40 1.43 1.46 1.52 1.53 1.52 1.51 1.50 1.54 1.55 1.56 1.57 1.56 1.55 1.45 1.41 1.34 1.31 1.30 1.28 1.24 1.20 1.19 1.17 1.19 1.16 1.10 1.06 1.04 1.02 1.00 0.97 0.93
0.21 0.22 0.24 0.23 0.25 0.23 0.20 0.20 0.21 0.20 0.17 0.17 0.20 0.21 0.20 0.20 0.19 0.19 0.17 0.18 0.27 0.29 0.25 0.31 0.36 0.20 0.19 0.26 0.45 0.53 0.47 0.51 0.52 0.54 0.57 0.63 0.69 0.75 0.79 0.83 0.88 0.94 0.99 1.03 1.03 1.06 1.09 1.13 1.21 1.27 1.30 1.36 1.38 1.40 1.40 1.45 1.50 1.53 1.53 1.51 1.52 1.52 1.53 1.54 1.55 1.53 1.52 1.47 1.40 1.35 1.34 1.32 1.33 1.30 1.23 1.19 1.18 1.15 1.10 1.05 1.03 1.00 0.98 0.96 0.94 0.91
0.22 0.23 0.24 0.24 0.23 0.20 0.22 0.25 0.23 0.21 0.17 0.19 0.21 0.21 0.22 0.22 0.21 0.20 0.18 0.17 0.21 0.21 0.19 0.25 0.32 0.18 0.19 0.28 0.36 0.48 0.46 0.46 0.47 0.51 0.55 0.60 0.65 0.70 0.75 0.82 0.89 0.96 1.01 1.05 1.07 1.10 1.14 1.21 1.27 1.32 1.36 1.35 1.37 1.41 1.45 1.47 1.49 1.49 1.48 1.46 1.46 1.46 1.48 1.49 1.50 1.50 1.48 1.46 1.42 1.36 1.33 1.29 1.26 1.23 1.20 1.18 1.14 1.08 1.05 1.00 0.98 0.95 0.93 0.91 0.89 0.86
0.24 0.26 0.27 0.25 0.22 0.23 0.25 0.26 0.25 0.22 0.21 0.20 0.20 0.19 0.20 0.20 0.20 0.20 0.19 0.19 0.20 0.15 0.14 0.23 0.32 0.23 0.14 0.24 0.29 0.34 0.38 0.40 0.42 0.50 0.60 0.64 0.68 0.72 0.76 0.81 0.86 0.92 0.98 1.02 1.06 1.12 1.17 1.26 1.30 1.33 1.30 1.32 1.37 1.42 1.42 1.42 1.43 1.45 1.44 1.44 1.42 1.44 1.46 1.47 1.46 1.47 1.46 1.45 1.42 1.37 1.34 1.31 1.25 1.22 1.18 1.12 1.07 1.02 0.99 0.96 0.94 0.91 0.88 0.87 0.84 0.81
0.22 0.23 0.22 0.24 0.26 0.26 0.26 0.24 0.26 0.25 0.22 0.19 0.18 0.17 0.18 0.18 0.19 0.18 0.17 0.19 0.14 0.11 0.13 0.21 0.27 0.31 0.16 0.19 0.34 0.39 0.38 0.39 0.42 0.42 0.47 0.54 0.59 0.65 0.72 0.79 0.87 0.92 0.97 1.03 1.07 1.10 1.17 1.22 1.25 1.28 1.25 1.28 1.32 1.36 1.36 1.36 1.39 1.41 1.43 1.43 1.39 1.41 1.42 1.44 1.46 1.46 1.45 1.43 1.41 1.40 1.37 1.31 1.27 1.21 1.16 1.09 1.01 0.97 0.93 0.92 0.89 0.87 0.85 0.82 0.81 0.78
0.18 0.19 0.21 0.24 0.28 0.26 0.24 0.22 0.23 0.23 0.21 0.18 0.17 0.17 0.15 0.15 0.15 0.13 0.15 0.13 0.12 0.09 0.13 0.20 0.26 0.26 0.23 0.22 0.28 0.35 0.37 0.43 0.46 0.45 0.46 0.49 0.55 0.65 0.73 0.79 0.87 0.94 0.99 1.01 1.05 1.09 1.14 1.15 1.16 1.15 1.18 1.24 1.26 1.28 1.31 1.33 1.37 1.40 1.40 1.38 1.36 1.36 1.40 1.41 1.43 1.41 1.41 1.41 1.40 1.38 1.34 1.29 1.26 1.21 1.14 1.06 0.99 0.95 0.91 0.89 0.86 0.84 0.80 0.78 0.76 0.74
0.15 0.21 0.22 0.23 0.25 0.26 0.25 0.19 0.19 0.18 0.19 0.17 0.15 0.16 0.14 0.13 0.12 0.11 0.12 0.13 0.11 0.13 0.20 0.20 0.27 0.19 0.24 0.26 0.30 0.33 0.35 0.40 0.45 0.46 0.51 0.54 0.57 0.64 0.73 0.81 0.88 0.95 0.98 1.01 1.04 1.07 1.12 1.14 1.14 1.15 1.17 1.20 1.24 1.28 1.31 1.34 1.36 1.37 1.36 1.36 1.34 1.33 1.37 1.38 1.39 1.40 1.39 1.39 1.38 1.36 1.32 1.26 1.22 1.15 1.09 1.03 0.96 0.92 0.90 0.88 0.86 0.83 0.80 0.78 0.77 0.75
0.12 0.14 0.18 0.20 0.18 0.25 0.23 0.21 0.19 0.18 0.18 0.17 0.17 0.16 0.15 0.14 0.12 0.10 0.11 0.09 0.10 0.12 0.16 0.25 0.24 0.23 0.18 0.21 0.30 0.32 0.38 0.46 0.52 0.55 0.62 0.68 0.74 0.78 0.84 0.85 0.88 0.92 0.97 1.00 1.03 1.05 1.11 1.14 1.14 1.15 1.18 1.21 1.25 1.28 1.29 1.31 1.32 1.33 1.31 1.30 1.29 1.29 1.32 1.34 1.34 1.35 1.34 1.34 1.34 1.32 1.30 1.26 1.20 1.13 1.07 1.01 0.96 0.92 0.91 0.91 0.86 0.84 0.83 0.80 0.78 0.75
0.14 0.13 0.18 0.22 0.22 0.24 0.22 0.24 0.24 0.21 0.19 0.19 0.18 0.18 0.16 0.15 0.17 0.12 0.13 0.13 0.13 0.14 0.16 0.25 0.22 0.28 0.22 0.34 0.39 0.40 0.47 0.52 0.62 0.63 0.66 0.68 0.75 0.80 0.81 0.80 0.83 0.88 0.92 0.99 1.02 1.07 1.12 1.15 1.15 1.16 1.17 1.21 1.23 1.26 1.27 1.27 1.29 1.27 1.25 1.27 1.27 1.26 1.27 1.28 1.29 1.31 1.33 1.32 1.30 1.27 1.22 1.19 1.16 1.12 1.06 1.00 1.00 1.01 1.00 0.94 0.86 0.81 0.79 0.78 0.76 0.74
0.15 0.13 0.19 0.22 0.24 0.23 0.23 0.25 0.23 0.22 0.14 0.17 0.17 0.14 0.15 0.18 0.18 0.17 0.17 0.22 0.20 0.17 0.15 0.27 0.25 0.30 0.39 0.37 0.41 0.41 0.43 0.50 0.59 0.62 0.66 0.69 0.73 0.76 0.75 0.79 0.82 0.87 0.92 0.96 1.00 1.06 1.09 1.12 1.15 1.16 1.17 1.18 1.20 1.21 1.22 1.24 1.26 1.23 1.21 1.21 1.22 1.22 1.24 1.25 1.27 1.29 1.31 1.29 1.25 1.22 1.19 1.17 1.13 1.09 1.06 1.06 1.06 1.04 1.00 0.96 0.91 0.85 0.81 0.79 0.76 0.73
0.14 0.13 0.20 0.21 0.19 0.24 0.26 0.26 0.24 0.22 0.21 0.18 0.14 0.15 0.21 0.24 0.23 0.18 0.13 0.18 0.18 0.16 0.17 0.23 0.20 0.26 0.23 0.21 0.43 0.42 0.42 0.48 0.53 0.58 0.63 0.68 0.71 0.68 0.71 0.76 0.79 0.85 0.93 1.00 1.05 1.08 1.10 1.13 1.15 1.17 1.18 1.16 1.16 1.19 1.20 1.22 1.24 1.23 1.21 1.20 1.18 1.18 1.16 1.20 1.24 1.25 1.25 1.23 1.20 1.18 1.18 1.18 1.16 1.14 1.12 1.10 1.06 1.04 0.99 0.96 0.92 0.86 0.78 0.74 0.73 0.70
0.21 0.15 0.18 0.21 0.22 0.24 0.26 0.25 0.22 0.22 0.22 0.18 0.14 0.20 0.16 0.15 0.15 0.18 0.17 0.13 0.14 0.16 0.18 0.21 0.25 0.28 0.25 0.23 0.35 0.36 0.38 0.43 0.51 0.58 0.62 0.63 0.64 0.65 0.69 0.74 0.82 0.91 0.97 0.99 1.02 1.04 1.08 1.12 1.14 1.15 1.15 1.15 1.16 1.19 1.20 1.22 1.22 1.21 1.19 1.20 1.18 1.15 1.17 1.20 1.22 1.23 1.22 1.22 1.21 1.21 1.21 1.20 1.18 1.15 1.11 1.08 1.06 1.01 0.96 0.90 0.86 0.81 0.75 0.72 0.69 0.66
0.22 0.16 0.17 0.23 0.22 0.24 0.24 0.21 0.16 0.17 0.19 0.20 0.21 0.18 0.19 0.18 0.16 0.15 0.16 0.19 0.20 0.18 0.19 0.21 0.26 0.24 0.34 0.33 0.34 0.34 0.38 0.41 0.48 0.55 0.55 0.56 0.58 0.63 0.68 0.74 0.80 0.87 0.91 0.96 1.00 1.04 1.08 1.12 1.13 1.14 1.11 1.10 1.10 1.12 1.16 1.19 1.19 1.16 1.16 1.15 1.14 1.16 1.18 1.20 1.20 1.20 1.18 1.20 1.21 1.22 1.21 1.18 1.15 1.12 1.08 1.04 0.99 0.94 0.88 0.84 0.82 0.77 0.71 0.68 0.66 0.63
0.21 0.25 0.18 0.20 0.23 0.24 0.19 0.19 0.16 0.16 0.15 0.16 0.17 0.16 0.16 0.16 0.21 0.18 0.20 0.17 0.19 0.20 0.20 0.20 0.21 0.26 0.35 0.41 0.43 0.36 0.38 0.44 0.48 0.49 0.51 0.55 0.61 0.68 0.73 0.76 0.81 0.87 0.92 0.97 1.00 1.04 1.07 1.10 1.12 1.14 1.13 1.11 1.14 1.15 1.16 1.16 1.14 1.13 1.13 1.12 1.13 1.13 1.15 1.16 1.18 1.19 1.18 1.18 1.18 1.17 1.13 1.11 1.10 1.07 1.05 0.99 0.94 0.88 0.84 0.82 0.80 0.74 0.70 0.67 0.63 0.60
0.22 0.21 0.20 0.21 0.19 0.19 0.17 0.19 0.18 0.17 0.17 0.17 0.16 0.16 0.16 0.14 0.16 0.14 0.14 0.19 0.20 0.20 0.20 0.21 0.19 0.27 0.36 0.45 0.44 0.45 0.46 0.47 0.50 0.47 0.49 0.54 0.61 0.69 0.74 0.80 0.84 0.87 0.95 0.99 1.02 1.05 1.07 1.09 1.12 1.12 1.12 1.11 1.10 1.11 1.11 1.13 1.11 1.09 1.10 1.12 1.13 1.15 1.15 1.16 1.16 1.16 1.16 1.17 1.16 1.12 1.11 1.09 1.08 1.05 1.00 0.94 0.89 0.85 0.83 0.81 0.76 0.71 0.67 0.63 0.61 0.58
0.26 0.28 0.26 0.21 0.18 0.16 0.18 0.21 0.21 0.21 0.20 0.19 0.18 0.17 0.19 0.17 0.17 0.15 0.13 0.14 0.18 0.20 0.25 0.25 0.21 0.22 0.35 0.44 0.46 0.47 0.50 0.51 0.51 0.52 0.51 0.56 0.61 0.68 0.74 0.80 0.86 0.91 0.94 0.99 1.02 1.05 1.07 1.09 1.12 1.11 1.07 1.04 1.05 1.08 1.10 1.09 1.06 1.06 1.10 1.14 1.14 1.14 1.14 1.17 1.17 1.17 1.16 1.14 1.12 1.11 1.10 1.08 1.04 1.01 0.96 0.91 0.87 0.83 0.81 0.78 0.72 0.69 0.63 0.60 0.58 0.57
0.31 0.24 0.22 0.21 0.23 0.23 0.22 0.23 0.22 0.21 0.21 0.19 0.19 0.20 0.19 0.17 0.17 0.16 0.16 0.18 0.16 0.18 0.19 0.21 0.18 0.24 0.35 0.44 0.47 0.49 0.53 0.56 0.58 0.57 0.54 0.58 0.63 0.69 0.73 0.78 0.83 0.89 0.96 1.03 1.05 1.06 1.08 1.10 1.12 1.09 1.04 1.02 1.02 1.04 1.07 1.07 1.05 1.07 1.12 1.15 1.15 1.14 1.16 1.17 1.17 1.15 1.13 1.12 1.10 1.09 1.07 1.04 1.01 0.97 0.93 0.89 0.86 0.83 0.80 0.75 0.70 0.67 0.62 0.59 0.57 0.54
0.24 0.26 0.24 0.21 0.17 0.17 0.19 0.20 0.20 0.21 0.20 0.18 0.18 0.19 0.19 0.19 0.19 0.19 0.19 0.23 0.18 0.18 0.19 0.19 0.16 0.20 0.33 0.44 0.50 0.54 0.56 0.56 0.58 0.64 0.66 0.61 0.63 0.67 0.72 0.77 0.83 0.89 0.95 0.99 1.02 1.04 1.06 1.07 1.06 1.04 1.03 1.00 0.99 1.03 1.07 1.06 1.04 1.07 1.12 1.15 1.15 1.16 1.17 1.16 1.15 1.13 1.12 1.10 1.07 1.06 1.04 1.02 0.99 0.94 0.90 0.86 0.84 0.80 0.76 0.72 0.68 0.65 0.60 0.57 0.53 0.50
0.28 0.30 0.28 0.20 0.15 0.13 0.13 0.13 0.14 0.16 0.16 0.18 0.18 0.18 0.19 0.18 0.18 0.18 0.16 0.17 0.16 0.21 0.22 0.20 0.19 0.25 0.33 0.40 0.43 0.51 0.54 0.55 0.61 0.65 0.67 0.67 0.65 0.65 0.70 0.77 0.84 0.90 0.94 0.97 0.99 1.01 1.00 1.02 1.04 1.03 1.02 0.99 0.99 1.01 1.05 1.05 1.03 1.08 1.14 1.15 1.17 1.16 1.15 1.14 1.14 1.12 1.10 1.08 1.05 1.06 1.05 1.01 0.95 0.89 0.85 0.82 0.80 0.77 0.73 0.70 0.67 0.63 0.60 0.56 0.51 0.47
0.34 0.35 0.33 0.30 0.24 0.16 0.15 0.16 0.18 0.18 0.17 0.15 0.16 0.17 0.18 0.19 0.20 0.20 0.19 0.17 0.15 0.20 0.20 0.23 0.23 0.26 0.29 0.34 0.40 0.45 0.50 0.49 0.52 0.57 0.58 0.59 0.65 0.70 0.74 0.78 0.84 0.89 0.92 0.94 0.95 0.98 1.00 1.00 0.99 1.01 1.01 0.99 0.99 1.01 1.04 1.05 1.03 1.07 1.12 1.14 1.15 1.16 1.15 1.13 1.12 1.10 1.08 1.06 1.05 1.01 0.98 0.95 0.91 0.87 0.82 0.79 0.77 0.75 0.72 0.69 0.67 0.62 0.57 0.54 0.51 0.44
0.35 0.31 0.31 0.31 0.26 0.21 0.20 0.20 0.20 0.19 0.16 0.17 0.17 0.17 0.19 0.18 0.19 0.18 0.18 0.17 0.19 0.19 0.17 0.22 0.27 0.25 0.27 0.32 0.37 0.40 0.46 0.50 0.53 0.55 0.58 0.62 0.64 0.67 0.75 0.81 0.86 0.89 0.92 0.95 0.96 0.96 0.94 0.95 0.97 0.99 0.99 0.97 0.97 1.00 1.04 1.07 1.07 1.07 1.08 1.10 1.13 1.15 1.15 1.14 1.12 1.10 1.08 1.06 1.02 0.99 0.97 0.93 0.90 0.86 0.82 0.78 0.75 0.72 0.71 0.69 0.65 0.60 0.56 0.52 0.45 0.39
0.36 0.32 0.33 0.32 0.26 0.25 0.22 0.21 0.21 0.19 0.19 0.18 0.18 0.19 0.18 0.19 0.19 0.17 0.17 0.20 0.22 0.18 0.17 0.22 0.28 0.25 0.27 0.31 0.36 0.40 0.43 0.44 0.47 0.51 0.56 0.62 0.68 0.74 0.78 0.80 0.83 0.86 0.89 0.89 0.90 0.92 0.93 0.92 0.94 0.96 0.97 0.96 0.96 0.96 1.00 1.05 1.07 1.08 1.08 1.09 1.12 1.13 1.14 1.15 1.13 1.10 1.07 1.03 1.00 0.98 0.95 0.92 0.89 0.85 0.82 0.78 0.74 0.71 0.70 0.68 0.63 0.58 0.53 0.47 0.40 0.38
0.41 0.33 0.33 0.32 0.27 0.28 0.26 0.23 0.21 0.19 0.19 0.19 0.19 0.19 0.19 0.18 0.18 0.18 0.18 0.20 0.20 0.21 0.22 0.25 0.28 0.26 0.30 0.32 0.38 0.42 0.49 0.53 0.57 0.64 0.66 0.65 0.66 0.72 0.75 0.78 0.81 0.84 0.87 0.89 0.91 0.92 0.93 0.92 0.93 0.94 0.96 0.95 0.93 0.93 0.98 1.03 1.05 1.07 1.07 1.06 1.07 1.08 1.11 1.12 1.09 1.05 1.02 0.99 0.98 0.96 0.93 0.90 0.86 0.83 0.80 0.77 0.73 0.71 0.70 0.67 0.61 0.56 0.51 0.44 0.38 0.37
0.38 0.31 0.33 0.32 0.27 0.26 0.26 0.25 0.21 0.20 0.18 0.18 0.20 0.20 0.19 0.19 0.19 0.20 0.20 0.21 0.23 0.24 0.26 0.26 0.28 0.28 0.37 0.44 0.49 0.59 0.61 0.63 0.63 0.60 0.59 0.63 0.68 0.71 0.75 0.78 0.82 0.85 0.89 0.92 0.95 0.97 0.98 0.98 0.97 0.96 0.94 0.93 0.92 0.92 0.95 1.02 1.07 1.09 1.10 1.09 1.07 1.07 1.09 1.09 1.05 1.01 0.98 0.97 0.96 0.94 0.92 0.88 0.83 0.79 0.76 0.75 0.73 0.71 0.69 0.65 0.59 0.53 0.48 0.42 0.37 0.36
0.39 0.33 0.35 0.30 0.25 0.23 0.27 0.23 0.21 0.20 0.19 0.18 0.19 0.19 0.18 0.18 0.17 0.19 0.18 0.22 0.21 0.22 0.25 0.26 0.27 0.30 0.40 0.46 0.52 0.57 0.59 0.58 0.55 0.58 0.61 0.65 0.69 0.72 0.72 0.75 0.80 0.84 0.88 0.91 0.95 0.98 0.98 0.98 0.97 0.95 0.94 0.93 0.93 0.93 0.94 0.98 1.04 1.07 1.09 1.09 1.08 1.09 1.09 1.07 1.02 0.99 0.97 0.97 0.95 0.93 0.90 0.87 0.82 0.78 0.76 0.76 0.73 0.71 0.68 0.62 0.55 0.49 0.44 0.39 0.36 0.35
0.36 0.32 0.29 0.28 0.24 0.23 0.27 0.25 0.20 0.19 0.18 0.16 0.17 0.18 0.19 0.19 0.20 0.21 0.21 0.22 0.22 0.28 0.25 0.23 0.25 0.33 0.41 0.47 0.47 0.51 0.54 0.55 0.57 0.59 0.61 0.66 0.70 0.71 0.71 0.73 0.78 0.83 0.87 0.90 0.93 0.94 0.95 0.95 0.95 0.94 0.93 0.93 0.92 0.92 0.94 0.98 1.02 1.05 1.10 1.10 1.10 1.10 1.07 1.04 1.01 0.98 0.95 0.95 0.94 0.92 0.89 0.85 0.80 0.77 0.77 0.76 0.73 0.70 0.65 0.58 0.51 0.46 0.41 0.36 0.35 0.34
0.36 0.33 0.30 0.31 0.24 0.23 0.25 0.24 0.21 0.17 0.14 0.15 0.27 0.29 0.22 0.18 0.19 0.19 0.19 0.21 0.26 0.30 0.28 0.30 0.31 0.39 0.43 0.46 0.43 0.46 0.50 0.51 0.51 0.59 0.64 0.63 0.66 0.70 0.74 0.76 0.78 0.81 0.85 0.89 0.91 0.92 0.94 0.97 0.98 0.99 0.98 0.96 0.96 0.96 0.97 0.99 1.02 1.09 1.14 1.13 1.12 1.08 1.06 1.03 1.00 0.97 0.96 0.95 0.94 0.92 0.88 0.84 0.79 0.77 0.77 0.75 0.71 0.67 0.62 0.55 0.48 0.45 0.41 0.37 0.34 0.32
0.35 0.33 0.31 0.31 0.26 0.23 0.25 0.22 0.17 0.14 0.15 0.31 0.34 0.33 0.31 0.27 0.24 0.23 0.25 0.26 0.29 0.29 0.30 0.31 0.37 0.39 0.44 0.45 0.42 0.44 0.44 0.48 0.54 0.60 0.65 0.71 0.71 0.67 0.66 0.71 0.76 0.81 0.84 0.87 0.89 0.91 0.93 0.95 0.98 0.99 0.99 0.98 0.98 0.97 0.97 0.97 1.01 1.08 1.10 1.10 1.08 1.07 1.05 1.02 0.99 0.98 0.96 0.94 0.93 0.91 0.87 0.82 0.79 0.77 0.76 0.73 0.70 0.66 0.60 0.53 0.49 0.46 0.43 0.36 0.33 0.31
0.33 0.32 0.32 0.29 0.29 0.28 0.23 0.19 0.14 0.14 0.30 0.34 0.33 0.34 0.34 0.29 0.28 0.25 0.23 0.28 0.31 0.30 0.32 0.30 0.35 0.39 0.44 0.51 0.54 0.58 0.57 0.61 0.63 0.66 0.69 0.72 0.73 0.71 0.71 0.72 0.76 0.81 0.82 0.87 0.88 0.91 0.92 0.93 0.94 0.96 0.97 1.02 1.01 0.98 0.96 0.96 0.99 1.03 1.05 1.08 1.07 1.07 1.04 1.01 0.99 0.98 0.96 0.93 0.91 0.90 0.87 0.82 0.79 0.77 0.74 0.71 0.69 0.65 0.59 0.54 0.50 0.47 0.43 0.37 0.33 0.33
0.36 0.34 0.33 0.28 0.30 0.23 0.24 0.20 0.20 0.31 0.27 0.29 0.27 0.28 0.27 0.23 0.23 0.21 0.19 0.24 0.31 0.34 0.33 0.31 0.36 0.42 0.49 0.54 0.57 0.62 0.64 0.63 0.57 0.59 0.70 0.73 0.75 0.77 0.77 0.77 0.81 0.81 0.84 0.89 0.92 0.90 0.92 0.94 0.96 0.98 1.01 1.01 1.01 0.98 0.97 0.97 0.96 0.97 1.00 1.01 1.03 1.04 1.02 0.99 0.97 0.97 0.97 0.95 0.91 0.90 0.88 0.83 0.79 0.74 0.70 0.69 0.68 0.64 0.59 0.54 0.51 0.49 0.45 0.36 0.32 0.31
0.40 0.32 0.33 0.29 0.26 0.31 0.24 0.20 0.21 0.21 0.19 0.24 0.29 0.34 0.36 0.35 0.31 0.27 0.23 0.24 0.34 0.38 0.38 0.34 0.35 0.45 0.50 0.53 0.55 0.62 0.64 0.53 0.45 0.47 0.59 0.68 0.75 0.79 0.85 0.90 0.94 0.92 0.90 0.93 0.97 0.97 0.96 0.95 0.96 0.98 0.98 0.98 0.98 0.98 0.99 0.97 0.93 0.92 0.94 0.99 1.02 1.00 0.96 0.96 0.97 0.98 0.98 0.96 0.94 0.91 0.88 0.82 0.75 0.70 0.68 0.68 0.66 0.64 0.59 0.55 0.52 0.48 0.44 0.36 0.31 0.30
0.38 0.38 0.36 0.30 0.27 0.25 0.25 0.22 0.21 0.19 0.21 0.28 0.30 0.33 0.37 0.38 0.34 0.31 0.21 0.21 0.32 0.38 0.41 0.37 0.39 0.44 0.47 0.49 0.52 0.58 0.53 0.42 0.39 0.41 0.56 0.66 0.72 0.79 0.82 0.86 0.89 0.92 0.91 0.90 0.89 0.89 0.91 0.92 0.94 0.95 0.94 0.93 0.91 0.95 0.97 0.97 0.92 0.88 0.90 0.96 0.96 0.94 0.92 0.94 0.97 0.98 0.99 0.97 0.95 0.92 0.87 0.79 0.73 0.70 0.68 0.67 0.67 0.64 0.58 0.54 0.50 0.48 0.45 0.38 0.33 0.31
0.32 0.33 0.32 0.28 0.27 0.25 0.25 0.23 0.22 0.24 0.24 0.31 0.35 0.37 0.39 0.40 0.35 0.26 0.16 0.19 0.34 0.39 0.41 0.39 0.39 0.44 0.48 0.52 0.53 0.49 0.44 0.37 0.40 0.42 0.58 0.65 0.68 0.73 0.73 0.76 0.81 0.85 0.88 0.91 0.93 0.94 0.94 0.95 0.94 0.91 0.89 0.87 0.88 0.92 0.96 0.96 0.93 0.88 0.87 0.92 0.92 0.88 0.89 0.92 0.97 1.00 0.96 0.97 0.96 0.92 0.84 0.78 0.74 0.71 0.69 0.67 0.66 0.63 0.57 0.53 0.49 0.47 0.46 0.41 0.34 0.31
0.30 0.31 0.31 0.28 0.27 0.26 0.26 0.26 0.28 0.27 0.36 0.40 0.38 0.40 0.40 0.39 0.30 0.19 0.15 0.31 0.40 0.44 0.42 0.40 0.40 0.47 0.54 0.55 0.56 0.47 0.51 0.47 0.48 0.54 0.63 0.70 0.73 0.75 0.80 0.84 0.87 0.90 0.89 0.90 0.92 0.95 0.92 0.91 0.90 0.88 0.88 0.90 0.90 0.89 0.92 0.94 0.92 0.88 0.89 0.91 0.91 0.91 0.92 0.94 0.96 0.97 0.96 0.96 0.91 0.87 0.84 0.79 0.74 0.71 0.69 0.67 0.65 0.61 0.56 0.52 0.47 0.46 0.46 0.44 0.36 0.32
0.30 0.31 0.31 0.32 0.28 0.26 0.26 0.26 0.27 0.30 0.38 0.45 0.45 0.43 0.41 0.29 0.19 0.19 0.38 0.49 0.47 0.46 0.48 0.46 0.40 0.43 0.49 0.51 0.54 0.50 0.52 0.57 0.57 0.59 0.63 0.67 0.65 0.67 0.74 0.80 0.85 0.89 0.94 0.97 0.95 0.92 0.90 0.89 0.88 0.89 0.90 0.91 0.90 0.89 0.89 0.90 0.91 0.88 0.86 0.87 0.89 0.94 0.96 0.94 0.96 1.00 0.97 0.97 0.95 0.90 0.84 0.79 0.75 0.72 0.68 0.67 0.65 0.60 0.54 0.51 0.48 0.46 0.45 0.46 0.38 0.31
0.30 0.28 0.28 0.28 0.33 0.30 0.29 0.27 0.26 0.22 0.36 0.52 0.45 0.38 0.41 0.26 0.27 0.41 0.51 0.52 0.54 0.53 0.52 0.50 0.47 0.44 0.49 0.47 0.51 0.51 0.51 0.57 0.57 0.56 0.59 0.67 0.69 0.68 0.69 0.73 0.77 0.80 0.83 0.86 0.88 0.92 0.92 0.88 0.86 0.86 0.87 0.89 0.88 0.89 0.88 0.88 0.88 0.88 0.84 0.82 0.86 0.89 0.91 0.95 0.99 0.99 0.97 0.93 0.89 0.88 0.85 0.80 0.74 0.71 0.69 0.66 0.64 0.59 0.52 0.49 0.47 0.46 0.46 0.45 0.39 0.32
0.36 0.28 0.29 0.31 0.34 0.28 0.28 0.25 0.26 0.40 0.47 0.53 0.46 0.34 0.42 0.43 0.52 0.54 0.52 0.48 0.56 0.56 0.56 0.54 0.54 0.50 0.50 0.48 0.48 0.50 0.54 0.56 0.59 0.61 0.63 0.67 0.72 0.74 0.75 0.77 0.82 0.87 0.90 0.93 0.93 0.92 0.91 0.88 0.87 0.85 0.86 0.86 0.87 0.87 0.87 0.84 0.84 0.87 0.84 0.80 0.87 0.90 0.93 0.96 0.95 0.94 0.91 0.88 0.89 0.87 0.83 0.78 0.74 0.70 0.67 0.65 0.62 0.57 0.50 0.47 0.46 0.45 0.44 0.44 0.37 0.32
0.40 0.35 0.35 0.29 0.35 0.30 0.28 0.35 0.49 0.56 0.58 0.59 0.56 0.54 0.57 0.60 0.61 0.60 0.57 0.52 0.51 0.52 0.58 0.55 0.55 0.59 0.56 0.53 0.54 0.55 0.53 0.55 0.58 0.63 0.61 0.64 0.68 0.71 0.73 0.75 0.79 0.83 0.86 0.88 0.89 0.92 0.91 0.88 0.86 0.85 0.84 0.84 0.84 0.85 0.86 0.86 0.82 0.83 0.85 0.85 0.86 0.87 0.89 0.90 0.90 0.89 0.91 0.92 0.89 0.88 0.83 0.78 0.72 0.68 0.65 0.64 0.60 0.53 0.49 0.47 0.45 0.42 0.43 0.40 0.35 0.33
0.47 0.50 0.48 0.43 0.38 0.50 0.51 0.53 0.56 0.57 0.60 0.62 0.64 0.66 0.64 0.64 0.67 0.65 0.59 0.53 0.55 0.57 0.58 0.56 0.61 0.63 0.65 0.67 0.60 0.59 0.59 0.61 0.61 0.65 0.68 0.69 0.70 0.74 0.78 0.82 0.85 0.90 0.92 0.92 0.92 0.91 0.91 0.92 0.90 0.86 0.82 0.82 0.83 0.84 0.85 0.85 0.84 0.82 0.89 0.90 0.86 0.86 0.86 0.86 0.87 0.90 0.90 0.87 0.84 0.82 0.79 0.72 0.68 0.65 0.64 0.62 0.59 0.53 0.50 0.46 0.44 0.40 0.39 0.36 0.34 0.33
0.48 0.48 0.44 0.38 0.49 0.40 0.34 0.50 0.50 0.52 0.58 0.62 0.62 0.65 0.67 0.66 0.64 0.64 0.60 0.58 0.59 0.61 0.60 0.62 0.60 0.63 0.68 0.68 0.68 0.67 0.67 0.69 0.67 0.70 0.72 0.73 0.72 0.74 0.76 0.77 0.81 0.85 0.86 0.85 0.90 0.92 0.92 0.90 0.86 0.84 0.82 0.80 0.82 0.82 0.83 0.83 0.84 0.87 0.90 0.85 0.85 0.84 0.83 0.84 0.89 0.89 0.87 0.84 0.82 0.77 0.72 0.67 0.64 0.65 0.65 0.62 0.58 0.55 0.52 0.49 0.45 0.41 0.37 0.35 0.34 0.34
0.38 0.54 0.43 0.41 0.42 0.37 0.41 0.49 0.52 0.55 0.57 0.61 0.61 0.60 0.59 0.61 0.61 0.61 0.61 0.61 0.60 0.60 0.64 0.65 0.64 0.62 0.59 0.61 0.69 0.69 0.70 0.73 0.73 0.73 0.74 0.74 0.75 0.76 0.78 0.81 0.85 0.88 0.92 0.94 0.94 0.94 0.93 0.91 0.86 0.84 0.82 0.81 0.82 0.83 0.82 0.81 0.82 0.86 0.88 0.86 0.83 0.82 0.83 0.85 0.87 0.87 0.85 0.81 0.79 0.78 0.74 0.70 0.68 0.65 0.64 0.62 0.59 0.55 0.54 0.52 0.50 0.45 0.40 0.37 0.35 0.34
0.49 0.50 0.38 0.42 0.38 0.45 0.51 0.54 0.54 0.53 0.54 0.55 0.58 0.60 0.61 0.62 0.60 0.60 0.61 0.60 0.59 0.58 0.60 0.65 0.66 0.65 0.65 0.61 0.60 0.63 0.66 0.73 0.75 0.76 0.76 0.78 0.79 0.80 0.82 0.84 0.87 0.89 0.91 0.89 0.92 0.94 0.92 0.91 0.89 0.87 0.84 0.83 0.84 0.84 0.82 0.81 0.82 0.85 0.87 0.88 0.85 0.83 0.84 0.86 0.87 0.86 0.83 0.80 0.78 0.76 0.73 0.71 0.70 0.68 0.65 0.62 0.59 0.56 0.55 0.53 0.50 0.45 0.43 0.42 0.40 0.37
0.46 0.40 0.48 0.43 0.35 0.35 0.37 0.44 0.51 0.41 0.41 0.50 0.56 0.60 0.61 0.64 0.62 0.59 0.58 0.56 0.56 0.55 0.58 0.58 0.63 0.67 0.67 0.68 0.65 0.64 0.59 0.65 0.73 0.77 0.77 0.79 0.80 0.82 0.83 0.85 0.87 0.88 0.90 0.93 0.95 0.95 0.94 0.94 0.92 0.88 0.86 0.85 0.85 0.84 0.83 0.82 0.82 0.85 0.87 0.88 0.86 0.85 0.85 0.85 0.85 0.84 0.81 0.80 0.77 0.75 0.76 0.73 0.71 0.68 0.65 0.62 0.58 0.56 0.58 0.59 0.53 0.48 0.44 0.43 0.44 0.43
0.45 0.45 0.45 0.39 0.35 0.35 0.43 0.51 0.54 0.53 0.52 0.55 0.57 0.60 0.62 0.63 0.62 0.58 0.55 0.55 0.56 0.57 0.59 0.58 0.59 0.62 0.64 0.68 0.70 0.64 0.62 0.63 0.67 0.73 0.74 0.76 0.79 0.83 0.86 0.87 0.87 0.88 0.89 0.92 0.91 0.91 0.91 0.91 0.90 0.88 0.85 0.84 0.85 0.84 0.84 0.83 0.82 0.82 0.84 0.85 0.85 0.85 0.86 0.86 0.83 0.82 0.83 0.80 0.76 0.75 0.76 0.75 0.72 0.69 0.66 0.63 0.59 0.57 0.57 0.54 0.51 0.51 0.49 0.48 0.46 0.44
Wind_Speed
34 34 36 38 38 38 37 35 34 28 25 27 27 27 29 28 27 27 27 26 25 26 26 26 25 25 25 24 22 21 20 19 19 18 18 17 17 17 17 17 17 17 16 15 14 14 14 14 14 14 14 14 15 15 15 15 15 15 15 15 15 15 15 15 14 13 13 13 12 12 11 11 10 10 9 8 7 7 7 7 6 6 6 6 5 5
34 36 38 38 35 35 35 34 34 31 26 24 25 25 27 28 27 26 27 26 25 24 24 25 25 25 25 24 22 22 21 20 20 19 18 18 18 17 17 17 17 16 15 14 14 14 14 14 15 15 15 15 15 15 15 14 15 15 15 15 14 14 15 15 15 14 13 13 13 12 12 11 11 10 9 8 8 7 7 6 6 6 6 5 4 5
35 37 37 36 34 33 34 34 34 33 29 25 25 24 25 26 26 25 25 25 24 23 24 24 24 24 25 23 22 22 21 20 21 20 19 19 18 17 18 17 17 16 15 15 14 15 15 15 15 15 15 15 15 15 15 15 15 15 16 16 15 14 14 15 15 14 14 13 13 13 12 12 11 10 9 8 8 7 7 7 6 6 5 5 5 5
35 36 35 35 34 33 33 33 34 33 31 27 25 25 25 25 25 25 24 23 22 23 24 23 23 24 24 23 23 22 20 19 20 20 19 19 19 18 19 18 18 17 16 15 15 15 15 16 16 15 15 15 15 15 15 15 15 16 16 16 15 14 14 14 14 14 14 14 13 13 12 12 11 10 10 9 8 8 8 7 7 6 5 5 6 6
34 31 33 35 34 34 33 33 34 33 32 30 27 25 25 24 24 24 24 23 22 22 24 23 21 23 25 25 24 23 21 20 20 19 19 19 20 19 19 18 18 17 16 16 15 15 15 16 16 16 16 16 16 16 15 15 15 16 16 16 15 15 15 15 14 14 14 14 14 13 12 11 11 10 10 10 9 9 8 8 7 7 6 6 7 7
34 29 30 34 34 34 34 33 33 33 32 31 29 27 25 24 23 23 23 23 22 23 25 24 21 22 24 26 25 24 23 22 21 21 20 20 21 20 19 18 18 17 17 16 16 16 16 17 16 16 16 16 17 16 15 15 15 16 16 15 15 15 15 15 14 14 14 14 14 14 13 12 11 11 10 10 10 9 8 8 8 7 7 7 7 7
35 31 28 31 34 35 34 34 33 33 31 30 30 28 25 24 22 23 23 23 23 24 25 24 22 21 23 25 26 25 24 24 22 23 22 21 21 20 19 19 18 17 17 17 16 17 17 17 16 16 16 17 17 16 15 15 15 15 15 15 15 15 15 14 14 14 14 15 15 14 13 12 12 12 11 11 10 9 9 8 7 7 6 7 7 7
35 34 29 29 32 34 35 35 33 33 31 29 30 28 26 25 23 24 23 22 23 23 23 24 23 21 23 26 26 25 25 25 24 24 24 22 21 21 20 20 20 18 18 18 17 17 17 17 16 16 16 17 17 16 15 15 15 15 15 15 15 14 14 14 14 15 15 15 15 14 13 12 12 12 11 11 11 10 9 8 7 7 6 6 7 7
33 36 32 29 31 33 35 34 32 32 30 28 28 28 26 25 24 24 23 22 21 21 22 25 24 22 23 25 25 26 27 27 26 26 24 23 22 22 21 21 20 20 18 18 18 18 18 17 17 16 16 17 17 16 16 15 15 15 15 15 15 14 14 14 15 15 15 16 15 14 13 12 12 12 11 11 11 10 9 8 7 7 7 7 7 7
30 34 34 29 29 31 32 32 31 31 31 28 26 25 24 23 22 23 24 23 21 21 24 27 26 23 22 25 26 26 28 28 26 25 24 23 23 22 22 21 20 20 19 19 19 18 18 17 17 17 17 17 16 16 16 15 15 15 16 16 15 15 15 15 15 16 16 16 16 15 14 13 12 12 12 12 11 10 9 8 8 8 8 7 7 7
28 30 32 31 29 29 28 30 31 31 31 28 25 25 23 21 20 20 21 21 21 23 27 28 28 25 22 25 28 27 27 27 25 23 23 23 23 23 23 22 21 20 20 19 18 18 18 18 18 18 17 17 16 16 16 15 15 16 16 16 16 15 15 15 16 16 16 16 16 15 14 14 13 13 13 12 11 10 9 9 9 9 8 8 7 7
28 28 30 31 30 28 27 29 30 31 31 29 26 26 24 21 20 19 19 20 21 24 27 28 28 27 25 25 27 28 27 26 25 24 24 24 23 23 23 22 21 20 20 20 19 18 18 18 19 18 17 17 17 16 16 15 16 16 16 16 16 15 16 16 16 16 16 16 15 15 14 14 14 13 13 12 11 11 10 9 9 9 9 8 8 8
30 29 28 29 30 30 28 28 29 30 31 30 28 28 25 22 21 21 20 20 23 24 24 26 27 27 27 27 26 28 27 25 25 24 24 24 23 22 23 23 22 20 19 20 20 19 19 19 19 18 18 17 17 17 16 16 16 15 15 15 15 15 15 15 15 15 16 16 15 15 14 14 13 13 12 12 12 11 10 10 10 9 9 9 8 9
29 28 28 29 30 32 31 30 31 32 32 32 31 30 28 24 23 24 23 22 24 24 23 24 25 24 26 26 26 28 27 25 25 24 24 24 23 22 22 22 21 21 20 19 20 20 19 19 19 19 18 18 17 17 17 16 16 15 15 15 15 15 15 15 15 15 16 15 15 15 14 14 13 13 12 12 12 11 10 10 10 9 9 9 9 9
29 27 30 31 30 31 33 31 30 30 31 32 31 30 29 27 24 24 24 23 22 21 21 22 23 23 23 23 24 26 26 25 23 22 22 22 22 21 20 20 21 21 20 19 20 20 20 20 20 19 19 18 17 17 17 16 16 16 15 15 15 15 15 15 15 15 15 15 15 14 14 13 13 13 12 11 11 11 10 10 9 9 9 9 9 9
29 27 28 30 29 30 32 30 28 28 29 30 30 30 31 30 25 22 22 22 21 18 19 21 22 23 23 22 21 22 24 24 21 21 21 21 22 21 19 19 20 20 21 20 20 20 21 20 20 20 19 18 18 18 17 16 16 16 16 16 16 16 15 15 15 15 15 15 15 14 14 13 13 12 12 11 11 10 10 9 9 9 9 9 9 9
28 26 25 27 29 30 30 30 29 29 29 29 30 32 31 29 24 20 19 19 18 18 19 21 22 21 21 21 20 21 22 22 21 21 22 21 22 22 20 19 20 20 21 20 20 20 21 21 20 20 19 19 19 18 17 17 17 16 16 16 16 15 15 15 15 16 15 15 15 14 14 13 12 12 12 11 11 10 10 9 8 8 8 9 9 9
25 23 24 27 29 30 29 28 29 29 28 28 31 32 29 26 24 21 19 17 16 18 20 21 22 21 21 21 21 22 23 22 22 21 21 21 21 22 21 20 20 21 20 20 20 20 20 21 20 20 19 19 19 18 17 17 17 16 16 16 16 15 15 15 16 16 16 15 15 14 13 13 12 12 11 11 10 10 9 8 8 8 9 9 9 10
23 21 23 26 27 28 27 27 28 29 29 28 29 30 28 27 27 24 21 19 18 18 18 19 20 22 23 22 22 24 25 24 22 21 21 21 21 21 21 20 21 21 20 20 20 20 20 20 20 20 20 20 19 18 18 18 17 17 17 16 16 15 15 15 16 16 15 15 14 13 13 13 12 12 11 11 10 10 9 8 8 8 9 9 9 9
23 19 20 24 27 26 26 27 29 30 31 27 25 28 29 27 27 26 23 20 18 17 17 17 18 20 23 23 23 25 26 25 23 22 22 21 21 21 20 20 21 20 20 20 20 20 20 20 20 20 21 20 20 19 19 19 18 17 17 16 15 15 16 16 16 16 15 15 14 13 13 13 12 12 11 10 10 9 9 9 9 9 9 9 9 10
22 19 18 21 25 26 27 29 31 31 32 30 27 29 31 29 26 26 25 22 18 16 16 17 17 20 22 22 22 24 25 25 24 22 21 20 21 21 20 20 20 20 19 19 20 21 20 20 20 21 21 20 20 19 20 20 19 18 17 16 16 16 16 16 16 16 15 15 14 14 13 13 12 12 11 10 9 9 9 9 9 9 9 9 10 10
23 19 16 18 24 28 29 28 29 30 31 31 29 28 31 31 28 25 25 24 21 17 15 16 16 19 21 21 22 23 23 24 24 22 19 19 21 21 20 20 20 20 19 19 20 20 21 21 21 21 21 20 20 20 21 21 20 19 18 17 17 17 17 17 16 16 15 15 14 14 14 13 12 11 10 10 9 9 9 9 9 9 9 10 10 10
22 19 16 18 23 27 27 25 26 28 27 28 29 27 27 29 29 27 24 24 22 19 16 14 15 17 19 20 21 22 22 23 23 22 20 20 21 21 20 19 19 19 19 19 20 20 21 21 21 21 21 20 20 21 22 21 20 19 18 18 18 18 17 17 17 16 16 15 15 14 14 13 12 11 11 10 10 10 10 10 10 10 10 10 10 10
21 19 17 17 19 23 23 22 24 26 26 27 28 27 26 27 29 28 25 23 23 22 18 15 14 16 18 18 18 19 19 20 21 21 20 20 20 21 20 20 20 20 20 20 20 20 20 21 21 21 21 20 20 21 22 22 21 20 19 18 18 18 18 18 17 17 16 16 15 14 14 13 13 12 12 11 11 11 10 10 10 10 10 10 10 11
21 18 17 16 17 20 22 21 22 26 28 28 28 28 28 26 26 27 25 22 21 22 21 18 16 17 17 16 17 17 17 18 19 19 19 19 19 20 20 20 21 21 20 20 20 20 21 21 21 22 22 21 21 22 22 22 21 20 20 19 19 19 18 18 18 17 17 16 15 15 14 14 14 13 13 12 12 11 11 11 11 11 11 11 11 11
20 18 17 17 17 21 23 23 25 27 29 29 29 30 29 26 25 26 26 24 21 20 19 18 18 19 18 17 18 18 17 17 18 18 18 19 20 20 20 20 21 22 21 21 21 21 21 22 22 22 22 22 22 22 22 22 22 21 21 20 19 19 18 18 18 18 17 17 16 15 15 14 14 13 13 12 12 12 12 11 11 11 11 11 11 11
18 17 17 17 18 23 25 24 25 27 29 30 31 31 29 27 25 24 25 26 24 20 18 19 18 18 19 19 20 20 19 19 18 19 19 19 19 20 20 20 21 22 22 22 21 22 22 23 23 23 23 22 22 23 23 23 23 23 22 21 20 19 19 19 19 18 18 17 16 16 15 14 13 13 12 12 12 12 12 12 12 11 11 11 11 11
15 15 16 16 17 22 25 23 22 25 29 29 29 29 28 27 26 24 24 25 24 22 20 19 18 18 19 20 21 21 21 20 19 19 19 19 19 19 19 20 21 22 22 22 22 22 23 23 23 23 23 23 23 24 24 24 24 24 23 22 21 21 20 19 19 19 18 17 17 16 15 14 13 13 12 12 12 12 12 12 12 12 11 11 11 11
15 14 15 15 15 19 23 23 22 23 26 28 28 28 28 27 27 26 25 24 23 22 21 20 20 20 19 19 20 22 22 21 20 19 18 18 18 19 19 20 21 22 22 22 22 23 23 23 23 23 23 23 24 24 25 25 25 25 24 23 23 22 21 20 20 19 19 18 17 16 15 14 14 13 13 13 13 13 13 13 12 12 11 11 11 11
15 14 15 14 14 16 20 23 23 22 23 26 27 27 27 27 27 26 24 24 22 21 20 19 20 20 19 18 19 19 19 19 18 18 18 18 18 19 19 20 21 22 22 23 23 23 23 23 23 23 23 24 24 25 25 26 26 26 25 24 24 23 22 21 21 20 20 19 18 16 15 15 14 14 13 14 14 14 13 13 13 12 12 12 12 12
15 14 14 14 14 16 17 20 23 22 22 24 25 25 25 24 24 24 22 22 21 20 18 17 17 18 18 17 15 15 17 17 18 18 18 18 19 19 19 19 20 21 22 22 22 22 22 22 22 23 23 24 25 25 25 26 26 26 26 25 25 25 23 22 22 21 20 20 18 17 16 16 15 15 14 15 14 14 14 14 13 13 12 12 12 12
14 13 12 13 15 16 17 19 22 22 21 22 23 24 23 22 22 23 23 22 21 20 18 16 16 17 16 15 15 16 18 18 18 18 18 18 19 19 19 19 20 20 21 21 21 21 22 22 23 23 23 24 25 25 26 26 26 26 26 26 26 26 24 23 23 22 21 20 19 18 17 17 16 15 15 15 15 15 15 14 14 13 13 12 12 12
14 12 11 13 15 16 17 20 22 21 20 21 23 24 24 22 21 22 22 20 19 19 18 18 18 17 15 15 16 17 18 18 18 18 19 18 19 19 20 20 20 20 21 21 21 21 22 22 22 23 23 23 24 25 26 26 26 27 27 27 27 27 25 25 24 23 22 21 20 19 18 18 17 16 16 16 16 16 15 15 14 14 13 13 13 12
13 12 11 13 15 15 16 19 21 20 20 21 23 24 24 23 22 21 21 20 18 17 18 18 18 17 16 17 18 18 19 20 20 20 20 19 19 19 19 20 20 20 20 20 21 21 21 21 21 22 22 23 23 24 26 26 27 27 27 28 28 27 27 26 25 24 23 22 21 20 19 19 18 17 17 17 17 17 16 16 15 14 13 13 13 12
11 11 11 13 15 15 16 18 20 20 20 21 21 23 23 23 22 20 19 18 17 16 17 17 18 18 19 18 18 19 19 19 19 19 20 19 20 20 20 19 19 19 20 20 20 20 20 20 21 22 22 23 23 23 24 26 26 26 27 28 28 28 27 27 26 25 24 23 22 21 20 20 19 19 19 19 19 18 17 16 16 14 14 13 13 12
11 10 11 12 14 14 14 17 20 20 20 19 19 20 21 20 20 19 17 17 17 16 17 18 19 19 18 16 16 16 16 15 15 16 18 19 20 20 21 20 20 20 21 21 21 21 21 22 22 23 23 23 23 23 24 25 26 26 27 27 27 27 27 27 26 25 24 23 23 22 22 21 20 20 20 20 20 19 18 17 16 15 14 13 13 12
11 11 11 11 13 14 14 16 18 18 18 18 18 19 20 20 20 20 18 18 18 18 17 18 18 18 17 15 15 15 15 14 14 15 18 19 20 20 21 21 21 21 21 22 22 22 22 22 22 22 22 22 23 23 24 24 25 26 27 27 27 27 27 27 26 26 25 24 23 23 23 22 21 21 21 20 20 20 19 18 17 16 15 14 13 12
10 11 12 12 12 12 13 15 16 17 18 19 19 19 19 20 21 21 19 18 19 18 18 18 17 17 17 15 15 16 15 15 16 17 18 19 20 20 20 20 20 20 20 21 21 21 21 21 21 21 21 22 23 24 24 24 24 25 26 27 27 27 27 27 27 26 25 25 24 24 23 23 22 22 21 21 21 20 19 18 17 16 15 14 13 12
8 10 12 11 11 11 12 13 15 17 18 20 20 19 18 19 20 20 18 18 20 19 18 18 18 17 18 17 17 17 16 17 17 18 18 19 20 20 21 21 21 20 21 21 22 22 22 21 21 21 21 22 22 23 24 24 24 24 26 26 27 27 27 27 27 26 26 25 24 24 23 23 22 22 21 22 21 21 20 19 18 17 16 15 14 13
9 10 11 11 10 11 12 12 14 16 17 18 19 18 18 18 18 18 18 20 21 20 18 18 19 19 18 18 18 17 17 18 18 18 19 20 20 20 21 21 21 22 22 22 22 22 22 22 22 22 22 22 23 23 24 25 24 24 25 26 26 26 26 27 26 26 25 24 24 24 24 23 22 22 22 22 22 21 20 19 18 17 16 15 14 13
10 9 11 12 11 10 11 11 13 15 17 18 18 17 18 17 17 19 20 21 21 19 18 18 19 19 19 19 19 18 19 19 17 17 18 20 20 21 21 21 22 22 22 22 22 22 22 22 23 23 23 24 24 24 24 25 25 24 25 25 26 26 26 26 25 25 25 24 24 24 24 24 23 22 22 22 22 21 20 20 19 18 17 16 15 14
12 10 11 12 12 11 11 11 11 13 16 16 16 16 16 17 18 20 21 20 19 19 18 17 18 20 21 21 21 21 21 19 17 17 18 20 22 22 21 21 22 22 23 23 23 23 23 23 23 24 24 24 24 25 25 26 26 25 25 26 27 27 26 26 25 25 25 25 24 24 24 24 23 21 21 22 22 22 21 20 19 19 18 17 16 15
13 12 12 13 13 12 11 10 10 12 14 14 13 13 14 15 18 19 19 18 18 18 17 17 19 20 21 22 23 23 22 20 18 18 18 20 21 22 22 22 23 23 23 23 23 24 23 23 23 24 24 24 24 25 26 26 27 26 25 26 26 26 26 25 25 25 25 25 25 25 24 24 23 22 22 23 23 22 22 21 20 19 19 18 17 16
12 12 12 13 13 12 12 12 12 13 13 12 12 14 14 14 15 16 16 17 18 17 17 17 18 20 22 23 23 23 22 21 20 20 19 20 21 22 22 23 23 23 24 23 23 23 23 23 23 23 23 24 24 25 25 26 26 26 26 25 26 26 26 25 25 25 25 25 25 24 24 24 23 22 23 23 23 23 22 22 21 20 20 19 18 17
13 13 13 13 13 13 13 14 13 13 13 12 12 13 12 12 13 13 13 14 15 16 17 17 17 18 20 22 22 22 21 20 20 20 20 20 21 22 22 22 23 23 23 23 23 23 23 23 23 23 23 24 24 24 25 25 26 26 26 25 25 26 26 26 26 26 26 25 25 25 25 24 23 23 23 24 24 24 23 22 22 21 20 20 19 18
14 14 13 13 13 13 13 13 12 12 12 12 12 12 11 11 12 12 11 11 12 13 14 14 15 16 17 18 20 21 21 20 19 19 20 20 20 21 21 21 22 22 22 22 22 23 23 23 23 23 23 23 24 24 25 25 26 26 26 26 26 26 26 26 26 26 26 26 26 25 25 25 24 24 24 24 24 24 24 23 23 22 21 20 20 19
14 14 13 13 13 13 13 13 12 12 12 12 12 12 12 11 11 11 11 10 11 11 12 13 13 14 14 15 17 18 20 20 19 19 19 20 20 21 21 21 22 22 23 23 23 23 23 23 23 23 23 23 24 24 25 25 26 26 26 25 25 26 26 26 26 25 25 25 25 25 25 25 24 24 24 24 25 25 24 24 23 23 22 21 21 20
13 13 13 14 14 14 15 15 14 13 13 13 13 13 13 12 12 11 11 11 11 11 12 13 13 13 13 14 15 15 16 18 19 19 19 19 20 20 21 21 22 22 23 23 23 24 24 23 23 23 23 24 24 25 25 26 26 26 26 26 25 25 25 25 25 25 25 25 25 25 26 25 25 24 24 24 25 25 25 25 24 24 23 23 22 21
12 12 13 14 14 14 15 15 15 13 13 13 13 13 13 13 13 12 12 12 12 11 12 12 13 13 13 13 14 14 14 16 17 18 18 19 19 20 20 21 21 22 22 22 23 23 23 23 23 24 24 24 25 25 26 26 26 27 26 26 26 26 26 25 25 25 25 26 26 26 26 25 25 25 24 25 26 26 25 25 25 25 24 24 23 22
11 12 12 12 12 13 15 16 15 14 14 15 14 14 14 14 13 12 12 12 12 13 12 12 13 14 13 14 14 14 14 14 15 16 17 18 18 19 19 20 20 21 22 22 22 23 23 23 24 24 24 24 25 25 26 26 26 26 27 27 27 27 26 26 25 25 26 26 26 26 26 26 25 25 25 25 26 26 25 25 25 25 25 24 23 23
12 12 13 13 13 13 14 15 15 14 14 15 14 13 14 14 13 13 13 13 13 14 14 13 13 13 14 14 14 14 14 14 15 15 15 16 17 18 18 19 20 20 21 22 22 22 23 23 23 23 23 24 24 25 26 26 26 26 27 27 28 27 27 26 26 26 26 26 26 26 26 25 25 25 25 26 26 26 26 25 25 25 24 23 23 23
Wind_Direction
208 210 212 212 212 212 212 212 214 219 217 214 215 216 216 217 221 220 217 216 211 213 222 222 221 220 219 220 220 219 219 219 222 224 227 229 227 223 222 225 228 231 234 234 231 230 229 228 227 225 224 222 221 224 225 226 225 223 223 221 221 224 227 226 228 233 234 232 233 232 229 227 227 227 227 229 235 239 239 235 233 236 239 240 242 247
208 212 215 213 213 212 211 211 213 219 219 214 215 216 216 217 220 219 217 216 212 215 223 221 218 219 219 220 222 220 220 223 223 225 228 226 225 224 223 224 227 231 234 233 230 228 226 224 223 224 224 221 219 221 224 224 222 222 221 220 220 223 227 228 231 235 234 232 232 229 224 222 222 223 225 228 232 232 230 227 228 234 238 239 241 247
211 214 214 211 211 210 209 209 210 216 218 214 214 214 216 218 218 219 218 216 214 216 221 219 217 219 219 220 223 222 223 226 225 227 228 223 223 226 224 223 225 229 232 232 230 226 222 220 221 222 222 220 218 218 222 222 220 220 221 222 224 226 228 230 232 233 231 230 230 225 220 219 220 222 223 225 224 222 221 222 227 233 236 241 244 251
211 215 211 208 210 209 209 209 209 213 216 214 212 212 215 217 214 215 216 214 214 216 217 216 217 219 219 220 222 221 223 225 225 228 227 224 225 225 225 224 224 226 229 229 228 225 221 218 219 220 219 219 218 218 220 220 220 220 221 224 227 228 229 228 229 230 228 225 223 220 217 217 218 220 221 220 218 218 220 224 231 235 240 247 252 257
213 214 210 207 209 209 209 210 209 211 215 214 213 211 213 215 213 213 212 211 214 216 214 211 215 219 218 218 220 220 222 222 222 224 225 225 226 227 226 225 224 225 227 227 226 225 222 218 219 219 219 219 218 219 220 219 220 221 222 225 227 227 227 226 226 226 225 220 217 215 215 216 217 218 218 215 215 219 224 229 235 239 244 250 255 260
213 214 209 207 208 209 209 211 210 210 214 216 215 211 210 212 213 212 212 210 211 215 216 213 215 221 221 218 219 220 221 220 220 222 224 224 225 226 226 224 224 225 226 227 226 224 222 220 220 221 221 220 218 219 220 219 221 222 223 225 225 225 225 224 223 221 219 215 212 212 212 215 216 214 214 213 215 222 229 234 237 241 247 251 256 261
211 213 210 207 208 208 210 212 211 209 211 216 215 210 208 211 211 212 213 211 211 215 217 216 216 221 223 221 219 218 218 219 219 222 223 223 223 225 225 223 224 225 225 226 225 223 222 222 222 222 221 219 217 219 220 220 220 221 222 222 222 222 222 222 220 216 213 210 210 211 212 214 214 212 212 214 217 223 231 236 238 243 250 254 258 262
207 210 210 207 207 208 210 211 210 208 210 216 215 207 207 211 211 212 212 211 214 216 216 218 218 220 223 223 218 216 217 219 220 222 223 223 223 224 225 223 224 225 225 224 223 222 222 223 221 219 218 216 215 217 219 220 220 219 219 218 219 221 221 220 216 213 211 210 210 210 211 213 213 211 210 212 217 225 232 235 238 246 252 257 261 264
205 207 208 206 206 209 210 209 207 206 209 214 212 205 206 209 209 212 213 212 215 215 215 218 218 219 225 223 217 217 219 219 220 222 223 224 223 223 224 224 225 225 224 223 223 222 221 221 219 217 216 215 216 218 220 221 220 218 218 218 219 221 220 218 215 213 212 212 211 211 212 213 213 212 210 213 219 226 232 235 241 248 253 257 261 264
206 207 206 205 207 209 209 208 206 205 208 211 207 203 205 207 208 211 213 214 216 217 217 217 215 219 226 223 217 217 219 219 221 222 224 224 223 223 224 224 225 224 223 223 223 222 220 218 216 216 216 215 217 220 221 220 219 218 218 219 220 221 220 218 215 213 212 212 212 212 213 213 214 213 212 215 221 225 230 236 242 248 251 255 259 262
207 206 206 206 207 207 206 207 206 204 207 208 204 203 205 207 208 209 212 213 216 221 221 217 215 219 227 225 219 219 220 219 221 222 223 223 223 223 223 223 223 223 222 221 220 220 217 214 214 215 215 215 216 218 218 217 218 219 219 220 220 220 219 217 214 211 211 211 212 212 213 214 213 213 214 218 221 223 227 234 241 248 251 253 257 262
207 206 205 206 205 203 203 206 205 204 205 205 203 201 204 209 209 211 214 212 215 222 222 217 215 219 226 226 222 223 225 222 221 222 221 222 222 223 222 222 222 221 220 218 218 218 215 214 215 215 214 213 214 215 215 215 216 217 218 218 217 216 214 214 212 210 210 211 211 212 214 214 213 214 218 221 221 223 228 235 243 249 251 252 257 263
206 205 204 206 205 202 202 204 203 203 204 203 200 198 200 204 207 210 213 212 216 222 221 215 213 220 228 228 224 224 226 223 222 222 220 219 219 220 221 220 220 219 217 216 217 218 215 215 217 215 212 212 212 213 213 213 214 215 216 215 212 210 209 210 210 210 211 212 211 211 213 214 215 218 221 222 222 225 233 240 245 250 250 253 258 265
205 207 204 204 205 202 201 202 201 202 202 201 201 199 200 201 203 208 210 213 218 221 221 213 213 223 230 230 225 222 222 222 222 222 219 218 217 218 218 217 217 218 217 217 217 216 215 214 214 213 212 212 212 212 212 212 213 214 215 213 209 207 206 208 209 209 211 212 211 211 213 215 217 219 221 222 223 228 237 244 247 249 251 254 261 269
201 207 205 203 203 201 201 203 202 202 201 201 201 200 202 203 204 207 209 212 214 218 220 213 215 223 224 227 228 221 219 220 221 221 217 217 218 217 217 215 215 217 218 217 216 214 213 212 212 212 212 212 212 213 214 212 211 212 212 209 205 204 205 207 209 210 211 210 210 210 212 214 217 220 221 222 225 232 240 246 248 250 253 258 265 272
201 207 206 203 203 202 201 202 200 199 200 201 200 201 205 205 204 207 210 212 212 215 218 214 219 226 224 229 231 220 216 217 216 214 211 213 215 214 216 216 216 218 217 216 215 213 211 211 211 212 212 213 212 213 215 212 208 208 207 206 203 204 207 209 210 210 210 208 208 209 211 213 216 219 221 223 229 236 243 247 250 253 256 262 269 275
200 207 205 201 204 204 201 201 200 200 199 199 200 204 206 203 201 206 211 213 212 216 221 218 222 228 227 230 229 216 213 214 213 210 208 209 211 212 216 218 218 218 216 215 215 212 211 210 211 211 212 211 210 211 212 209 206 205 205 204 203 206 208 209 209 209 208 207 207 209 211 214 217 219 222 226 232 238 244 248 252 255 258 264 270 276
197 205 206 199 202 204 201 199 202 202 197 196 202 204 202 200 203 207 209 212 211 217 224 220 219 222 221 224 222 213 211 212 211 208 206 207 209 212 217 218 218 217 215 215 214 212 211 210 210 210 210 209 209 210 209 206 204 204 204 204 204 207 209 209 208 207 207 207 208 211 213 216 219 221 225 229 233 239 244 248 253 256 260 265 271 278
196 203 207 200 199 201 198 197 201 203 198 197 202 202 197 198 204 205 206 209 211 217 225 224 223 223 220 219 217 212 211 211 209 206 206 207 208 212 216 216 215 214 214 214 212 211 211 210 209 210 209 208 207 208 206 204 204 203 204 205 206 209 210 210 209 208 208 209 211 213 215 218 219 221 225 228 233 239 243 249 255 259 262 266 273 281
194 198 204 201 197 195 197 198 200 201 199 198 200 201 200 201 203 204 205 208 211 216 221 223 227 226 222 219 214 211 210 208 207 207 208 208 209 211 212 211 210 210 212 212 210 211 210 209 209 208 207 206 206 207 206 204 203 203 204 206 207 209 209 208 208 208 209 210 211 212 214 216 217 219 224 228 232 238 243 251 259 261 263 269 276 284
193 195 200 201 196 195 200 202 200 199 198 198 199 199 200 201 202 205 209 211 212 215 217 219 226 229 224 217 213 211 208 205 204 205 208 210 208 207 207 207 207 209 211 209 208 209 209 207 206 205 205 204 205 207 205 204 203 203 205 208 208 209 208 208 208 208 208 209 209 210 212 214 217 220 224 228 234 241 247 255 260 261 264 271 278 285
190 193 197 198 196 198 203 202 200 200 198 198 200 200 200 199 198 201 209 213 213 216 218 217 224 230 225 216 212 210 207 206 205 206 208 208 204 204 205 205 205 207 208 207 206 207 207 205 203 202 203 203 204 205 204 203 203 204 206 209 209 209 208 208 208 207 207 208 210 211 213 216 219 223 227 232 239 245 250 256 259 260 265 272 280 286
188 194 199 201 199 201 204 202 198 197 196 197 201 201 199 198 198 200 207 212 213 218 221 220 225 229 224 216 212 210 209 210 209 208 209 206 204 205 206 205 205 207 209 208 206 207 206 203 202 202 203 203 204 204 203 203 204 205 207 208 208 208 208 209 209 208 208 209 211 212 215 218 223 227 232 237 243 247 251 254 256 259 266 274 280 286
189 196 201 203 201 199 201 201 197 195 195 198 201 200 197 199 202 203 206 209 213 217 219 221 227 229 223 217 212 209 210 211 211 211 209 207 207 207 208 208 209 210 211 209 207 207 205 203 203 204 204 204 205 204 203 203 204 205 207 208 208 208 208 210 210 210 209 209 211 214 217 223 227 231 235 239 243 247 249 252 256 261 268 275 281 286
189 193 196 198 194 190 192 194 195 195 197 198 200 198 197 198 201 205 208 209 214 217 215 217 224 225 222 216 209 205 206 208 210 212 210 208 209 210 212 214 213 212 210 208 207 207 205 205 206 206 206 207 207 206 205 205 205 206 207 207 208 209 210 211 211 211 211 211 213 217 222 226 230 233 236 239 243 245 247 252 258 263 269 275 281 286
188 190 190 191 190 190 191 192 193 193 194 197 198 198 198 197 198 204 208 209 214 216 213 216 222 224 224 217 208 206 206 206 207 207 208 210 210 212 215 215 214 212 209 208 208 208 207 209 209 207 207 209 209 208 208 207 207 207 208 208 211 212 212 212 212 212 213 214 217 220 224 227 230 234 236 239 243 246 249 254 259 264 270 276 282 285
188 193 194 196 199 198 195 195 197 193 191 194 196 196 198 198 199 203 206 210 213 213 215 221 221 221 223 216 209 209 208 208 209 208 209 211 211 213 216 215 213 210 209 209 209 209 209 209 209 208 208 210 211 211 211 211 210 210 209 211 214 215 215 215 215 215 216 218 220 223 225 228 232 236 239 242 245 247 252 255 259 265 270 276 280 283
187 197 198 199 204 200 194 194 194 191 191 193 193 194 197 198 200 203 206 210 210 210 220 227 219 216 220 216 213 212 209 209 212 211 210 210 210 212 214 214 211 209 208 208 208 208 209 210 211 210 209 210 212 213 214 213 213 212 212 214 216 217 218 218 218 218 219 220 222 224 227 231 236 239 242 244 246 249 252 255 259 265 270 275 279 281
186 196 195 194 199 197 195 196 191 187 191 192 191 192 196 199 201 204 208 209 207 210 220 223 216 217 221 220 217 215 211 210 210 209 209 208 208 210 210 210 210 208 207 207 207 208 210 211 213 213 213 212 213 214 215 215 215 214 215 216 218 219 220 220 221 221 221 222 224 226 230 234 238 240 242 244 246 248 251 254 258 264 270 274 277 280
185 195 193 191 192 191 195 197 192 186 189 191 191 193 196 199 202 204 208 210 208 213 218 215 215 221 224 222 221 216 210 208 205 203 202 201 202 206 207 209 209 207 206 207 208 209 212 213 215 215 215 214 214 214 216 216 216 216 217 219 220 221 222 222 222 222 222 224 226 229 232 236 238 240 242 244 245 247 249 253 258 264 269 273 276 279
189 195 193 188 187 189 192 193 189 186 187 189 191 194 194 198 201 204 208 209 210 216 217 211 216 225 225 219 215 207 199 197 198 199 200 200 200 202 204 206 206 206 206 208 208 210 212 214 215 215 215 215 215 215 216 217 217 217 218 220 222 222 224 224 224 224 225 226 228 231 234 237 239 240 243 244 245 247 249 253 258 263 267 271 275 279
187 191 192 187 186 189 190 188 186 184 184 186 191 195 195 196 200 204 207 208 208 212 212 208 214 222 220 211 205 200 196 195 198 201 201 202 201 200 201 203 203 205 206 208 209 210 212 214 215 216 216 216 216 216 217 218 218 218 219 221 222 224 225 226 226 226 228 228 230 232 234 238 240 241 244 245 245 246 249 253 257 262 266 270 273 277
184 188 193 187 186 191 191 189 186 181 182 191 197 198 197 199 202 205 208 210 209 209 208 211 216 217 212 206 203 203 202 201 203 203 201 201 201 202 203 203 203 205 206 207 209 210 213 215 216 216 216 216 217 217 218 218 218 219 220 222 223 224 225 227 228 229 230 230 231 233 235 238 241 243 245 245 245 246 249 252 256 261 265 269 272 276
185 189 192 185 184 191 195 191 186 184 190 198 200 199 199 201 201 202 206 212 213 213 213 213 214 212 209 208 206 206 206 206 205 203 200 199 200 202 203 204 205 206 207 208 210 212 215 217 217 217 216 217 218 218 218 219 219 220 220 221 223 225 226 228 229 230 231 231 232 234 236 238 241 244 246 246 245 246 248 251 255 259 264 268 270 274
186 188 188 186 184 188 191 186 185 192 199 201 203 204 203 202 198 196 204 211 213 216 218 213 210 210 211 213 212 210 210 209 206 204 204 204 203 202 203 206 209 211 213 213 213 216 218 218 218 218 218 218 219 219 219 220 221 221 221 222 224 226 227 228 229 231 231 232 234 235 236 238 241 245 247 246 244 244 246 249 253 257 262 266 268 272
187 188 186 186 186 188 189 187 190 198 201 200 203 204 203 203 201 200 207 215 215 216 218 218 217 214 212 214 215 213 212 210 210 211 211 210 210 209 209 212 213 215 216 215 216 217 218 219 219 219 220 220 220 221 222 222 223 223 222 223 224 226 228 228 229 231 232 234 236 236 236 238 241 245 247 245 243 242 244 247 251 255 260 263 266 271
184 189 186 186 187 186 186 189 193 196 196 197 199 201 202 205 206 203 206 216 219 216 215 219 219 213 208 209 209 207 207 211 219 224 220 217 217 218 218 217 216 217 217 216 217 219 218 219 219 219 220 221 221 223 224 224 225 225 224 224 226 227 228 229 230 231 233 235 237 236 236 238 242 245 245 243 240 240 242 245 249 253 257 260 263 267
182 188 185 184 188 185 183 188 193 195 198 201 203 205 207 208 208 206 205 214 222 219 215 215 214 210 208 208 206 204 208 218 226 229 225 220 219 219 219 220 220 220 218 215 216 218 219 221 222 222 222 223 223 224 225 225 226 226 225 225 227 228 229 229 230 232 233 235 237 236 237 239 241 242 242 240 238 238 240 243 247 251 255 258 260 264
183 186 179 177 185 186 183 188 195 197 200 203 206 210 212 209 209 208 207 215 223 222 216 212 212 214 215 212 209 210 216 223 229 230 225 219 217 217 219 220 220 220 218 218 219 221 222 224 225 226 227 226 225 225 225 225 227 227 226 226 228 230 230 230 232 233 234 235 236 236 237 238 240 241 240 238 237 237 239 242 245 249 252 255 259 262
192 189 182 180 183 184 182 188 197 198 199 202 207 211 211 208 206 205 210 219 223 223 221 215 212 215 217 214 214 218 221 224 229 233 227 220 219 221 222 222 221 221 223 224 226 226 226 226 227 227 228 228 227 226 226 226 228 229 227 227 229 230 231 231 231 232 233 234 236 237 237 237 238 240 239 237 236 236 239 242 244 247 249 253 256 260
195 191 187 187 187 185 183 187 195 199 199 202 208 212 210 207 206 208 214 219 220 223 226 222 214 213 213 213 217 222 224 226 231 234 227 221 222 224 225 225 225 226 227 228 228 228 228 229 229 229 229 229 228 228 227 227 228 230 229 228 229 232 233 231 231 231 232 234 236 237 237 236 237 238 238 237 236 237 239 242 243 244 247 250 253 256
193 193 191 191 191 190 185 183 190 198 199 200 209 215 211 208 212 215 217 218 219 222 226 226 222 217 214 214 219 224 227 228 233 234 229 225 225 226 226 228 229 231 232 232 232 231 230 231 232 231 232 231 229 229 229 229 229 231 232 231 231 232 232 231 231 233 234 234 236 237 236 235 236 238 239 237 236 237 239 240 242 243 246 247 249 251
191 191 194 196 194 193 190 185 186 194 197 200 207 211 208 208 213 216 216 218 221 222 223 226 227 223 220 222 226 229 231 232 234 236 233 230 229 228 229 230 231 232 233 234 233 233 232 233 233 232 232 232 230 230 231 231 230 232 234 234 232 230 229 230 233 234 234 235 237 236 235 235 237 239 240 238 237 237 238 239 241 243 244 245 246 247
193 192 194 197 195 192 194 197 195 197 201 202 200 201 205 207 208 209 212 217 221 222 224 228 232 231 230 232 234 235 236 236 237 236 234 232 231 231 231 231 231 232 232 232 232 232 232 234 234 233 233 232 231 231 232 232 232 232 233 235 232 229 229 231 233 232 233 236 236 233 233 236 238 240 240 239 237 237 237 238 240 241 243 244 244 245
203 201 196 196 196 194 196 201 202 203 206 205 198 197 202 204 203 204 208 214 221 226 228 230 235 238 237 237 238 239 239 240 239 237 235 234 233 232 232 231 230 230 230 231 232 233 233 234 233 233 233 232 231 231 232 233 233 231 232 234 233 230 228 229 229 231 234 236 234 232 234 238 240 241 241 239 237 236 235 237 239 241 242 242 242 243
212 208 202 202 204 204 203 207 210 211 212 209 202 200 200 202 205 207 207 212 222 228 229 231 234 237 237 237 237 237 237 238 238 237 237 235 233 232 232 231 230 229 230 232 233 233 234 234 234 234 234 234 233 232 232 233 233 232 232 234 233 231 228 227 228 233 236 235 233 234 237 239 240 241 240 239 237 236 236 237 239 239 240 239 240 242
216 212 209 210 210 208 211 217 220 219 218 215 209 207 207 207 212 213 212 217 225 227 229 231 233 236 238 237 235 235 234 233 233 234 234 233 233 232 231 230 231 230 231 232 233 232 232 234 235 236 235 235 234 233 233 234 234 233 233 233 232 231 228 227 230 235 235 233 233 236 238 238 239 240 240 239 237 236 236 238 239 239 238 238 239 242
216 214 213 214 214 213 216 221 223 221 220 219 214 212 212 212 215 217 217 220 224 227 231 233 233 236 239 238 237 236 235 234 233 232 232 232 232 231 230 230 230 231 231 232 232 233 234 235 236 236 236 236 236 234 233 234 235 234 232 232 231 229 227 229 234 236 234 233 235 237 237 238 239 240 240 239 237 236 237 238 239 238 238 238 240 242
216 216 214 213 216 219 220 220 220 219 222 224 221 219 220 220 219 222 224 226 229 234 237 237 237 238 239 238 238 237 236 236 236 234 233 232 231 230 231 231 231 231 232 233 233 234 236 237 237 237 237 237 236 235 234 235 236 234 232 231 230 229 228 232 236 236 234 235 236 236 236 238 239 241 241 240 237 236 237 238 238 238 238 240 242 243
216 217 215 211 214 220 221 220 217 216 220 224 223 223 226 226 224 226 232 237 239 241 240 240 241 242 241 240 239 237 237 239 237 234 234 233 231 231 231 230 231 232 233 233 234 235 236 237 237 237 237 237 236 235 235 235 236 235 233 231 230 229 230 233 235 235 235 236 237 236 237 238 240 241 242 239 236 235 237 238 238 238 239 241 243 243
214 214 213 211 213 219 221 218 214 213 217 221 222 223 226 227 227 230 235 239 242 243 242 241 242 243 244 243 240 236 238 241 239 235 234 234 234 233 232 231 232 234 234 234 235 236 237 237 237 236 236 237 236 235 235 236 236 236 235 233 231 230 231 233 235 235 236 237 237 236 237 239 240 241 241 239 236 234 235 236 237 238 240 242 243 242